{"data":{"norad_id":51966,"intl_designator":"2022-025L","name":"STARLINK-3699","alt_names":[],"object_type":"PAYLOAD","status":"ACTIVE","operator":null,"country":"US","launch_date":"2022-03-09","launch_site_code":"AFETR","launch_vehicle":null,"mission":null,"orbit_class":"UNKNOWN","rcs_meters":null,"size_class":null,"mass_kg":null,"dimensions":null,"purposes":["comms"],"wikipedia_slug":null,"has_3d_model":false,"image_url":null,"decayed_at":null,"tle_current":{"epoch":"2026-05-24T23:17:50.567424Z","epoch_age_seconds":70847,"freshness":"FRESH","line1":"1 51966U 22025L   26144.97072416  .00001970  00000+0  75245-4 0  9994","line2":"2 51966  53.1606  42.2004 0001277  83.0215 277.0931 15.31697357232517","mean_motion":15.31697357,"eccentricity":0.0001277,"inclination_deg":53.1606,"raan_deg":42.2004,"arg_perigee_deg":83.0215,"mean_anomaly_deg":277.0931,"bstar":7.5245e-5,"rev_number":23251,"period_min":94.013350184295,"perigee_km":469.87327128405,"apogee_km":471.62247648084,"semimajor_km":6848.8848738824,"source":"CELESTRAK","updated_at":"2026-05-25T13:38:16.992735Z"}}}